Погода в Конце

Россия / Санкт-Петербург и Ленинградская область     60°54′36″N   34°58′05″E
темп.,
°C
ветер,
м/с
пор.,
м/с
влажн.,
%
обл.,
%
осадки,
мм/ч
давл.,
гПа
погр.,
м
5 марта, пт
пт500:00−11сз229789 0.1 100225
03:00−11сз249793 0.3 1004113
06:00−13сз129696 0.1 100421
09:00−14зсз119461 0.1 100623
12:00−8зюз368593 0.0 1007403
15:00−6ссз468995 0.6 1009812
18:00−11с229173 0.1 101129
21:00−15зсз129436 0.1 101220
6 марта, сб
сб600:00−16з229518 0.0 101420
03:00−16зюз239514 0.0 101532
06:00−14зюз249664 0.1 1014120
09:00−13юз259679 0.3 1014186
12:00−8юз369387 0.0 1012404
15:00−6юз488787 0.1 1009789
18:00−6ююз41187100 0.0 1004898
21:00−6ююз61591100 0.2 998952
7 марта, вс
вс700:00−5ююз71591100 0.7 9911009
03:00−2ююз61392100 1.4 987978
06:00−6з51086100 0.8 987591
09:00−11з2786100 0.8 988245
12:00−7зюз248350 0.0 990573
15:00−7зюз347939 0.0 991872
18:00−10зсз129099 0.0 99321
21:00−12ссз229499 0.0 99436
8 марта, пн
пн800:00−10с3996100 0.1 996408
03:00−11ссв51193100 0.6 999652
06:00−12ссв51193100 0.4 1002838
09:00−16с51293100 0.6 1005555
12:00−16с4993100 0.1 1008547
15:00−16с4992100 0.2 1010562
18:00−17с31095100 0.1 1013484
21:00−20с31097100 0.1 1015347
9 марта, вт
вт900:00−23ссз239985 0.0 101747
03:00−26ссз2210077 0.0 101821
06:00−28ссз1210079 0.0 102019
09:00−26ссз019985 0.0 102135
12:00−19св118868 0.0 1021278
15:00−16в118035 0.0 1021336
18:00−20в23941 0.0 102042
21:00−25в22830 0.0 102220